QPF
0.00 0.00 0.00 0.00 0.00 0.01 0.01 0.01 0.03 0.08 0.08 0.14 0.22 0.25 0.28 0.35 0.38 0.25 0.11 0.04 0.02 0.00 0.00 0.00 0.00 0.00 0.00 0.00 0.00 0.00 0.00 0.00 0.00 0.00 0.00 0.00 0.00 0.00 0.00 0.00 0.00 0.01 0.01 0.01
0.01 0.01 0.01 0.01 0.01 0.01 0.01 0.03 0.06 0.07 0.06 0.08 0.17 0.36 0.45 0.45 0.45 0.31 0.17 0.06 0.03 0.01 0.01 0.00 0.00 0.00 0.00 0.00 0.00 0.00 0.00 0.00 0.00 0.00 0.00 0.00 0.00 0.00 0.00 0.00 0.00 0.00 0.00 0.00
0.01 0.01 0.01 0.01 0.01 0.02 0.03 0.04 0.04 0.04 0.06 0.12 0.21 0.38 0.57 0.53 0.47 0.30 0.19 0.08 0.03 0.02 0.02 0.01 0.00 0.00 0.00 0.00 0.00 0.00 0.00 0.00 0.00 0.00 0.00 0.00 0.00 0.00 0.00 0.00 0.00 0.00 0.00 0.00
0.01 0.02 0.01 0.02 0.02 0.02 0.03 0.02 0.01 0.02 0.05 0.15 0.27 0.41 0.57 0.55 0.46 0.27 0.16 0.07 0.03 0.02 0.01 0.00 0.00 0.00 0.00 0.00 0.00 0.00 0.00 0.00 0.00 0.00 0.00 0.00 0.00 0.00 0.00 0.00 0.00 0.00 0.00 0.00
0.01 0.01 0.01 0.01 0.01 0.01 0.02 0.01 0.01 0.02 0.03 0.07 0.16 0.26 0.39 0.36 0.28 0.20 0.12 0.05 0.02 0.01 0.01 0.00 0.00 0.00 0.00 0.00 0.00 0.00 0.00 0.00 0.00 0.00 0.00 0.00 0.00 0.00 0.00 0.00 0.00 0.00 0.00 0.00
0.01 0.01 0.01 0.01 0.01 0.01 0.02 0.02 0.02 0.03 0.03 0.05 0.06 0.11 0.23 0.21 0.14 0.15 0.09 0.04 0.02 0.01 0.00 0.00 0.00 0.00 0.00 0.00 0.00 0.00 0.00 0.00 0.00 0.00 0.00 0.00 0.00 0.00 0.00 0.00 0.00 0.00 0.00 0.00
0.01 0.02 0.01 0.00 0.01 0.01 0.01 0.01 0.03 0.04 0.04 0.07 0.06 0.20 0.37 0.18 0.12 0.11 0.05 0.02 0.01 0.00 0.00 0.00 0.00 0.00 0.00 0.00 0.00 0.00 0.00 0.00 0.00 0.00 0.00 0.00 0.00 0.00 0.00 0.00 0.00 0.00 0.00 0.00
0.01 0.02 0.01 0.00 0.00 0.00 0.00 0.00 0.01 0.02 0.03 0.06 0.10 0.22 0.27 0.09 0.04 0.03 0.02 0.01 0.00 0.00 0.00 0.00 0.00 0.00 0.00 0.00 0.00 0.00 0.00 0.00 0.00 0.00 0.00 0.00 0.00 0.00 0.00 0.00 0.00 0.00 0.00 0.00
0.00 0.01 0.01 0.00 0.00 0.00 0.00 0.00 0.00 0.00 0.01 0.04 0.12 0.17 0.12 0.03 0.01 0.01 0.01 0.01 0.00 0.00 0.00 0.00 0.00 0.00 0.00 0.00 0.00 0.00 0.00 0.00 0.00 0.00 0.00 0.00 0.00 0.00 0.00 0.00 0.00 0.00 0.00 0.00
0.00 0.00 0.01 0.01 0.00 0.00 0.00 0.00 0.00 0.00 0.00 0.02 0.09 0.12 0.08 0.02 0.00 0.00 0.00 0.00 0.00 0.00 0.00 0.00 0.00 0.00 0.00 0.00 0.00 0.00 0.00 0.00 0.00 0.00 0.00 0.00 0.00 0.00 0.00 0.00 0.00 0.00 0.00 0.00
0.00 0.00 0.00 0.01 0.00 0.00 0.00 0.00 0.00 0.00 0.00 0.00 0.02 0.04 0.01 0.00 0.00 0.00 0.00 0.00 0.00 0.00 0.00 0.00 0.00 0.00 0.00 0.00 0.00 0.00 0.00 0.00 0.00 0.00 0.00 0.00 0.00 0.00 0.00 0.00 0.00 0.00 0.00 0.00
0.00 0.00 0.00 0.01 0.00 0.00 0.00 0.00 0.00 0.00 0.00 0.00 0.00 0.00 0.00 0.00 0.00 0.00 0.00 0.00 0.00 0.00 0.00 0.00 0.00 0.00 0.00 0.00 0.00 0.00 0.00 0.00 0.00 0.00 0.00 0.00 0.00 0.00 0.00 0.00 0.00 0.00 0.00 0.00
0.00 0.00 0.00 0.01 0.01 0.00 0.00 0.00 0.00 0.00 0.00 0.00 0.00 0.00 0.00 0.00 0.00 0.00 0.00 0.00 0.00 0.00 0.00 0.00 0.00 0.00 0.00 0.00 0.00 0.00 0.00 0.00 0.00 0.00 0.00 0.00 0.00 0.00 0.00 0.00 0.00 0.00 0.00 0.00
0.00 0.00 0.00 0.01 0.01 0.00 0.00 0.00 0.00 0.00 0.00 0.00 0.00 0.00 0.00 0.00 0.00 0.00 0.00 0.00 0.00 0.00 0.00 0.00 0.00 0.00 0.00 0.00 0.00 0.00 0.00 0.00 0.00 0.00 0.00 0.00 0.00 0.00 0.00 0.00 0.00 0.00 0.00 0.00
0.00 0.00 0.00 0.00 0.00 0.00 0.00 0.00 0.00 0.00 0.00 0.00 0.00 0.00 0.00 0.00 0.00 0.00 0.00 0.00 0.00 0.00 0.00 0.00 0.00 0.00 0.00 0.00 0.00 0.00 0.00 0.00 0.00 0.00 0.00 0.00 0.00 0.00 0.00 0.00 0.00 0.00 0.00 0.00
0.00 0.00 0.00 0.00 0.00 0.00 0.00 0.01 0.00 0.00 0.00 0.00 0.00 0.00 0.00 0.00 0.00 0.00 0.00 0.00 0.00 0.00 0.00 0.00 0.00 0.00 0.00 0.00 0.00 0.00 0.00 0.00 0.00 0.00 0.00 0.00 0.00 0.00 0.00 0.00 0.00 0.00 0.00 0.00
0.00 0.00 0.00 0.00 0.00 0.00 0.00 0.00 0.00 0.00 0.00 0.00 0.00 0.00 0.00 0.00 0.00 0.00 0.00 0.00 0.00 0.00 0.00 0.00 0.00 0.00 0.00 0.00 0.00 0.00 0.00 0.00 0.00 0.00 0.00 0.00 0.00 0.00 0.00 0.00 0.00 0.00 0.00 0.00
0.00 0.00 0.00 0.00 0.00 0.00 0.00 0.00 0.00 0.00 0.00 0.00 0.00 0.00 0.00 0.00 0.00 0.00 0.00 0.00 0.00 0.00 0.00 0.00 0.00 0.00 0.00 0.00 0.00 0.00 0.00 0.00 0.00 0.00 0.00 0.00 0.00 0.00 0.00 0.00 0.00 0.00 0.00 0.00
0.00 0.00 0.00 0.00 0.00 0.00 0.00 0.00 0.00 0.00 0.00 0.00 0.00 0.00 0.00 0.00 0.00 0.00 0.00 0.00 0.00 0.00 0.00 0.00 0.00 0.00 0.00 0.00 0.00 0.00 0.00 0.00 0.00 0.00 0.00 0.00 0.00 0.00 0.00 0.00 0.00 0.00 0.00 0.00
0.00 0.00 0.00 0.00 0.01 0.02 0.00 0.00 0.00 0.00 0.00 0.00 0.00 0.00 0.00 0.00 0.00 0.00 0.00 0.00 0.00 0.00 0.00 0.00 0.00 0.00 0.00 0.00 0.00 0.00 0.00 0.00 0.00 0.00 0.00 0.00 0.00 0.00 0.00 0.00 0.00 0.00 0.00 0.00
0.00 0.00 0.00 0.00 0.00 0.01 0.01 0.00 0.00 0.00 0.00 0.00 0.00 0.00 0.00 0.00 0.00 0.00 0.00 0.00 0.00 0.00 0.00 0.00 0.00 0.00 0.00 0.00 0.00 0.00 0.00 0.00 0.00 0.00 0.00 0.00 0.00 0.00 0.00 0.00 0.00 0.00 0.01 0.01
0.00 0.00 0.00 0.00 0.01 0.01 0.00 0.00 0.00 0.00 0.00 0.00 0.00 0.00 0.00 0.00 0.00 0.00 0.00 0.00 0.00 0.00 0.00 0.00 0.00 0.00 0.00 0.00 0.00 0.00 0.00 0.00 0.00 0.00 0.00 0.00 0.00 0.00 0.00 0.00 0.00 0.01 0.01 0.01
0.00 0.00 0.00 0.00 0.00 0.00 0.00 0.00 0.00 0.00 0.00 0.00 0.00 0.00 0.00 0.00 0.00 0.00 0.00 0.00 0.00 0.00 0.00 0.00 0.00 0.00 0.00 0.00 0.00 0.00 0.00 0.00 0.00 0.00 0.00 0.00 0.00 0.00 0.00 0.00 0.01 0.01 0.01 0.01
0.00 0.00 0.00 0.00 0.00 0.00 0.00 0.00 0.00 0.00 0.00 0.00 0.00 0.00 0.00 0.00 0.00 0.00 0.00 0.00 0.00 0.00 0.00 0.00 0.00 0.00 0.00 0.00 0.00 0.00 0.00 0.00 0.00 0.00 0.00 0.00 0.00 0.00 0.00 0.00 0.01 0.01 0.01 0.01
0.00 0.00 0.00 0.00 0.00 0.00 0.00 0.00 0.00 0.00 0.00 0.00 0.00 0.00 0.00 0.00 0.00 0.00 0.00 0.00 0.00 0.00 0.00 0.00 0.00 0.00 0.00 0.00 0.00 0.00 0.00 0.00 0.00 0.00 0.00 0.00 0.00 0.00 0.00 0.00 0.01 0.02 0.01 0.01
0.00 0.00 0.00 0.00 0.00 0.00 0.00 0.00 0.00 0.00 0.00 0.00 0.00 0.00 0.00 0.00 0.00 0.00 0.00 0.00 0.00 0.00 0.00 0.00 0.00 0.00 0.00 0.00 0.00 0.00 0.00 0.00 0.00 0.00 0.00 0.00 0.00 0.00 0.00 0.01 0.01 0.02 0.01 0.01
MSLP
1012.04 1012.84 1013.41 1013.76 1013.99 1014.20 1014.50 1014.96 1015.60 1016.37 1017.19 1017.96 1018.56 1018.93 1019.03 1018.86 1018.50 1018.02 1017.51 1017.03 1016.64 1016.32 1016.07 1015.85 1015.63 1015.37 1015.10 1014.83 1014.60 1014.46 1014.45 1014.56 1014.77 1015.02 1015.24 1015.36 1015.34 1015.15 1014.80 1014.34 1013.83 1013.34 1012.92 1012.61
1012.25 1012.90 1013.33 1013.61 1013.83 1014.12 1014.57 1015.22 1016.06 1017.01 1017.96 1018.78 1019.36 1019.63 1019.57 1019.22 1018.67 1018.03 1017.40 1016.85 1016.43 1016.13 1015.90 1015.71 1015.49 1015.23 1014.93 1014.63 1014.37 1014.23 1014.23 1014.39 1014.67 1015.00 1015.31 1015.52 1015.55 1015.38 1015.03 1014.53 1013.96 1013.41 1012.93 1012.57
1012.23 1012.67 1012.94 1013.12 1013.35 1013.72 1014.32 1015.18 1016.24 1017.37 1018.45 1019.32 1019.87 1020.04 1019.82 1019.28 1018.55 1017.76 1017.02 1016.42 1016.00 1015.73 1015.57 1015.44 1015.28 1015.05 1014.77 1014.47 1014.22 1014.07 1014.08 1014.26 1014.58 1014.96 1015.33 1015.58 1015.66 1015.52 1015.16 1014.65 1014.05 1013.46 1012.95 1012.56
1012.06 1012.25 1012.32 1012.40 1012.61 1013.08 1013.84 1014.91 1016.18 1017.50 1018.70 1019.62 1020.14 1020.20 1019.83 1019.12 1018.23 1017.30 1016.47 1015.84 1015.43 1015.22 1015.15 1015.11 1015.04 1014.90 1014.67 1014.41 1014.16 1014.01 1014.02 1014.19 1014.50 1014.89 1015.27 1015.55 1015.65 1015.52 1015.19 1014.69 1014.10 1013.51 1012.99 1012.59
1011.87 1011.77 1011.63 1011.60 1011.80 1012.35 1013.27 1014.53 1016.00 1017.49 1018.80 1019.75 1020.24 1020.21 1019.71 1018.85 1017.81 1016.77 1015.88 1015.23 1014.85 1014.71 1014.73 1014.81 1014.85 1014.80 1014.65 1014.43 1014.20 1014.05 1014.02 1014.16 1014.43 1014.78 1015.14 1015.41 1015.52 1015.42 1015.11 1014.65 1014.10 1013.54 1013.04 1012.64
1011.79 1011.41 1011.07 1010.93 1011.11 1011.73 1012.78 1014.19 1015.81 1017.43 1018.82 1019.80 1020.25 1020.14 1019.53 1018.56 1017.41 1016.28 1015.34 1014.68 1014.34 1014.27 1014.38 1014.57 1014.72 1014.77 1014.70 1014.53 1014.32 1014.15 1014.08 1014.15 1014.35 1014.63 1014.94 1015.18 1015.28 1015.21 1014.95 1014.55 1014.05 1013.55 1013.08 1012.71
1011.92 1011.30 1010.78 1010.54 1010.71 1011.36 1012.49 1014.01 1015.72 1017.40 1018.82 1019.80 1020.22 1020.04 1019.36 1018.30 1017.09 1015.91 1014.94 1014.29 1013.97 1013.96 1014.15 1014.43 1014.67 1014.81 1014.80 1014.67 1014.47 1014.27 1014.15 1014.14 1014.25 1014.45 1014.69 1014.88 1014.97 1014.92 1014.71 1014.38 1013.96 1013.53 1013.12 1012.78
1012.27 1011.48 1010.84 1010.52 1010.67 1011.33 1012.48 1014.02 1015.75 1017.43 1018.83 1019.77 1020.13 1019.91 1019.18 1018.09 1016.85 1015.67 1014.71 1014.07 1013.78 1013.81 1014.05 1014.38 1014.69 1014.88 1014.92 1014.81 1014.61 1014.38 1014.20 1014.11 1014.13 1014.24 1014.40 1014.54 1014.62 1014.59 1014.43 1014.17 1013.84 1013.48 1013.13 1012.83
1012.76 1011.89 1011.20 1010.85 1010.97 1011.60 1012.72 1014.21 1015.86 1017.46 1018.78 1019.64 1019.95 1019.70 1018.96 1017.89 1016.68 1015.54 1014.61 1014.01 1013.75 1013.80 1014.06 1014.41 1014.73 1014.94 1015.00 1014.90 1014.70 1014.44 1014.21 1014.05 1013.98 1014.01 1014.09 1014.19 1014.24 1014.23 1014.12 1013.92 1013.67 1013.38 1013.08 1012.82
1013.25 1012.41 1011.74 1011.40 1011.51 1012.09 1013.12 1014.47 1015.98 1017.42 1018.60 1019.35 1019.60 1019.33 1018.63 1017.62 1016.51 1015.45 1014.61 1014.06 1013.83 1013.88 1014.13 1014.46 1014.76 1014.96 1015.01 1014.91 1014.70 1014.42 1014.15 1013.93 1013.80 1013.76 1013.78 1013.83 1013.86 1013.86 1013.78 1013.64 1013.44 1013.20 1012.96 1012.71
1013.59 1012.87 1012.31 1012.03 1012.12 1012.63 1013.52 1014.68 1015.97 1017.20 1018.19 1018.82 1019.00 1018.75 1018.12 1017.23 1016.26 1015.35 1014.62 1014.14 1013.95 1014.00 1014.21 1014.50 1014.75 1014.91 1014.93 1014.81 1014.58 1014.30 1014.00 1013.76 1013.59 1013.49 1013.46 1013.47 1013.48 1013.47 1013.41 1013.29 1013.13 1012.94 1012.72 1012.49
1013.68 1013.17 1012.75 1012.56 1012.66 1013.08 1013.80 1014.74 1015.77 1016.75 1017.53 1018.02 1018.15 1017.93 1017.41 1016.69 1015.90 1015.17 1014.59 1014.22 1014.06 1014.10 1014.27 1014.48 1014.66 1014.76 1014.73 1014.59 1014.35 1014.06 1013.77 1013.52 1013.32 1013.20 1013.14 1013.11 1013.09 1013.06 1013.00 1012.89 1012.74 1012.56 1012.35 1012.13
1013.51 1013.24 1013.01 1012.92 1013.03 1013.37 1013.91 1014.61 1015.37 1016.08 1016.65 1017.00 1017.09 1016.92 1016.54 1016.01 1015.44 1014.91 1014.50 1014.23 1014.13 1014.16 1014.26 1014.39 1014.49 1014.50 1014.42 1014.25 1014.01 1013.73 1013.45 1013.20 1013.01 1012.87 1012.78 1012.73 1012.68 1012.62 1012.53 1012.41 1012.26 1012.08 1011.87 1011.65
1013.17 1013.13 1013.09 1013.11 1013.23 1013.48 1013.85 1014.31 1014.80 1015.27 1015.64 1015.86 1015.92 1015.82 1015.58 1015.25 1014.90 1014.59 1014.34 1014.19 1014.13 1014.14 1014.18 1014.22 1014.22 1014.15 1014.01 1013.81 1013.56 1013.30 1013.04 1012.82 1012.64 1012.51 1012.40 1012.32 1012.23 1012.14 1012.02 1011.88 1011.70 1011.51 1011.29 1011.06
1012.80 1012.97 1013.08 1013.19 1013.31 1013.47 1013.68 1013.92 1014.18 1014.41 1014.61 1014.73 1014.77 1014.73 1014.64 1014.50 1014.36 1014.23 1014.14 1014.08 1014.05 1014.04 1014.02 1013.97 1013.87 1013.72 1013.52 1013.29 1013.04 1012.80 1012.58 1012.39 1012.24 1012.11 1011.99 1011.89 1011.77 1011.64 1011.48 1011.30 1011.10 1010.87 1010.64 1010.40
1012.58 1012.88 1013.10 1013.26 1013.36 1013.43 1013.49 1013.54 1013.59 1013.63 1013.68 1013.72 1013.75 1013.77 1013.79 1013.82 1013.84 1013.87 1013.90 1013.92 1013.91 1013.86 1013.77 1013.63 1013.45 1013.23 1012.98 1012.73 1012.49 1012.27 1012.09 1011.94 1011.81 1011.69 1011.58 1011.45 1011.31 1011.13 1010.93 1010.71 1010.47 1010.23 1009.97 1009.72
1012.62 1012.98 1013.23 1013.38 1013.44 1013.41 1013.33 1013.22 1013.10 1012.99 1012.92 1012.89 1012.91 1012.98 1013.09 1013.23 1013.38 1013.52 1013.63 1013.69 1013.68 1013.60 1013.45 1013.24 1012.98 1012.70 1012.42 1012.16 1011.93 1011.75 1011.60 1011.49 1011.39 1011.29 1011.18 1011.04 1010.86 1010.65 1010.42 1010.15 1009.88 1009.60 1009.32 1009.05
1012.94 1013.28 1013.49 1013.58 1013.55 1013.42 1013.21 1012.97 1012.71 1012.49 1012.33 1012.25 1012.25 1012.35 1012.51 1012.73 1012.95 1013.15 1013.30 1013.38 1013.36 1013.25 1013.04 1012.78 1012.48 1012.16 1011.87 1011.62 1011.42 1011.27 1011.17 1011.09 1011.02 1010.94 1010.83 1010.67 1010.47 1010.23 1009.95 1009.65 1009.34 1009.02 1008.71 1008.42
1013.46 1013.69 1013.80 1013.78 1013.64 1013.39 1013.06 1012.70 1012.34 1012.03 1011.81 1011.69 1011.69 1011.79 1011.98 1012.23 1012.49 1012.72 1012.88 1012.96 1012.93 1012.79 1012.57 1012.28 1011.96 1011.65 1011.37 1011.15 1010.98 1010.87 1010.81 1010.77 1010.73 1010.66 1010.54 1010.37 1010.15 1009.87 1009.55 1009.21 1008.85 1008.49 1008.15 1007.82
1013.98 1014.05 1014.01 1013.84 1013.55 1013.18 1012.75 1012.29 1011.86 1011.50 1011.24 1011.10 1011.09 1011.19 1011.39 1011.65 1011.92 1012.16 1012.33 1012.40 1012.37 1012.24 1012.02 1011.75 1011.46 1011.18 1010.94 1010.76 1010.64 1010.58 1010.56 1010.54 1010.52 1010.45 1010.32 1010.13 1009.88 1009.56 1009.20 1008.80 1008.40 1008.00 1007.61 1007.24
1014.29 1014.18 1013.95 1013.61 1013.18 1012.68 1012.15 1011.63 1011.16 1010.77 1010.50 1010.35 1010.34 1010.45 1010.66 1010.92 1011.19 1011.43 1011.61 1011.71 1011.70 1011.60 1011.43 1011.21 1010.98 1010.76 1010.59 1010.47 1010.41 1010.39 1010.39 1010.40 1010.37 1010.30 1010.15 1009.93 1009.63 1009.27 1008.86 1008.41 1007.96 1007.50 1007.07 1006.65
1014.22 1013.91 1013.49 1012.98 1012.41 1011.80 1011.20 1010.64 1010.15 1009.76 1009.50 1009.37 1009.38 1009.51 1009.72 1009.99 1010.28 1010.54 1010.74 1010.88 1010.92 1010.89 1010.80 1010.67 1010.53 1010.40 1010.31 1010.26 1010.25 1010.27 1010.30 1010.30 1010.27 1010.17 1009.99 1009.72 1009.37 1008.96 1008.49 1007.99 1007.48 1006.97 1006.49 1006.04
1013.67 1013.18 1012.59 1011.93 1011.24 1010.55 1009.90 1009.32 1008.84 1008.48 1008.26 1008.17 1008.21 1008.37 1008.60 1008.90 1009.21 1009.51 1009.76 1009.96 1010.09 1010.15 1010.16 1010.14 1010.11 1010.09 1010.08 1010.10 1010.14 1010.19 1010.22 1010.21 1010.15 1010.01 1009.78 1009.46 1009.06 1008.58 1008.06 1007.50 1006.93 1006.38 1005.86 1005.38
1012.67 1012.04 1011.32 1010.55 1009.77 1009.03 1008.36 1007.80 1007.35 1007.04 1006.87 1006.83 1006.92 1007.11 1007.39 1007.72 1008.07 1008.42 1008.74 1009.01 1009.23 1009.41 1009.54 1009.64 1009.72 1009.80 1009.88 1009.96 1010.03 1010.09 1010.12 1010.08 1009.98 1009.79 1009.51 1009.13 1008.66 1008.13 1007.54 1006.93 1006.32 1005.73 1005.18 1004.69
1011.37 1010.64 1009.83 1008.99 1008.18 1007.42 1006.77 1006.24 1005.85 1005.59 1005.48 1005.50 1005.64 1005.88 1006.19 1006.56 1006.95 1007.35 1007.74 1008.10 1008.42 1008.70 1008.95 1009.16 1009.35 1009.51 1009.66 1009.79 1009.88 1009.94 1009.94 1009.87 1009.72 1009.48 1009.14 1008.70 1008.18 1007.59 1006.96 1006.30 1005.66 1005.04 1004.48 1003.98
1010.00 1009.21 1008.36 1007.51 1006.69 1005.97 1005.35 1004.88 1004.54 1004.35 1004.30 1004.37 1004.55 1004.82 1005.16 1005.55 1005.98 1006.42 1006.86 1007.29 1007.69 1008.06 1008.39 1008.69 1008.96 1009.19 1009.39 1009.54 1009.65 1009.69 1009.67 1009.56 1009.36 1009.07 1008.68 1008.20 1007.63 1007.00 1006.33 1005.65 1004.98 1004.36 1003.79 1003.31
Thickness
5777 5757 5745 5751 5757 5756 5752 5744 5737 5741 5747 5739 5728 5721 5720 5722 5721 5719 5722 5725 5727 5730 5734 5736 5736 5735 5732 5729 5726 5723 5720 5716 5713 5709 5705 5702 5699 5699 5698 5699 5699 5699 5699 5699
5760 5750 5765 5772 5768 5762 5753 5741 5735 5738 5743 5734 5719 5711 5713 5712 5711 5712 5718 5721 5724 5726 5728 5731 5732 5731 5727 5724 5721 5718 5714 5710 5707 5703 5699 5696 5693 5691 5690 5689 5689 5689 5689 5689
5757 5766 5781 5772 5764 5757 5750 5740 5735 5727 5727 5724 5713 5698 5700 5709 5711 5712 5719 5722 5724 5725 5725 5727 5728 5726 5723 5720 5717 5715 5709 5705 5701 5697 5692 5688 5685 5682 5681 5680 5680 5680 5679 5679
5767 5780 5779 5769 5763 5761 5742 5757 5750 5736 5714 5698 5703 5681 5692 5700 5704 5710 5717 5720 5722 5726 5727 5726 5725 5722 5719 5717 5714 5709 5704 5699 5695 5691 5685 5680 5675 5671 5670 5670 5669 5669 5669 5669
5763 5776 5773 5765 5768 5768 5753 5762 5751 5735 5712 5697 5695 5686 5690 5700 5701 5709 5717 5723 5725 5727 5727 5725 5723 5720 5717 5713 5708 5703 5698 5693 5688 5684 5680 5674 5669 5666 5664 5662 5661 5660 5660 5660
5774 5788 5785 5780 5784 5780 5765 5749 5735 5720 5706 5689 5692 5690 5692 5699 5707 5713 5720 5725 5726 5726 5726 5723 5720 5715 5710 5706 5701 5696 5691 5686 5682 5677 5673 5668 5664 5660 5656 5654 5651 5650 5649 5650
5764 5778 5789 5791 5772 5768 5759 5730 5706 5699 5686 5684 5695 5693 5697 5716 5723 5723 5723 5724 5725 5725 5720 5715 5711 5706 5702 5698 5693 5689 5683 5677 5674 5670 5666 5662 5658 5654 5650 5646 5643 5641 5639 5639
5742 5745 5776 5787 5778 5765 5758 5740 5710 5698 5686 5682 5691 5689 5704 5729 5734 5732 5729 5726 5723 5717 5713 5709 5704 5700 5695 5692 5687 5681 5675 5671 5667 5663 5659 5655 5651 5647 5643 5640 5637 5634 5632 5631
5740 5745 5780 5790 5792 5781 5760 5744 5740 5710 5693 5678 5684 5695 5713 5729 5729 5728 5724 5720 5714 5710 5707 5702 5698 5694 5690 5686 5680 5675 5670 5665 5661 5657 5653 5648 5644 5641 5637 5634 5631 5628 5626 5624
5761 5749 5765 5782 5785 5779 5768 5754 5728 5707 5685 5677 5685 5690 5693 5713 5717 5719 5715 5711 5707 5704 5701 5698 5694 5690 5686 5681 5676 5671 5666 5661 5656 5652 5647 5644 5639 5635 5631 5626 5623 5620 5617 5616
5766 5745 5750 5762 5761 5757 5759 5751 5728 5707 5699 5680 5672 5686 5719 5717 5717 5713 5710 5707 5703 5700 5698 5695 5692 5689 5684 5679 5673 5667 5662 5657 5651 5647 5642 5637 5632 5628 5623 5619 5615 5612 5609 5606
5764 5740 5732 5748 5766 5774 5763 5750 5731 5709 5704 5692 5679 5687 5730 5723 5719 5714 5709 5707 5705 5702 5699 5695 5691 5686 5681 5675 5670 5665 5660 5654 5649 5644 5638 5632 5627 5622 5616 5611 5607 5604 5600 5598
5762 5734 5715 5720 5735 5755 5757 5755 5741 5720 5703 5693 5680 5692 5722 5721 5716 5715 5711 5708 5704 5701 5698 5693 5688 5683 5677 5672 5667 5662 5657 5652 5647 5641 5634 5628 5621 5615 5610 5605 5601 5596 5593 5590
5766 5734 5719 5710 5718 5738 5747 5753 5747 5726 5703 5702 5699 5701 5711 5712 5711 5710 5709 5706 5702 5699 5695 5689 5683 5678 5674 5669 5664 5660 5655 5650 5645 5638 5631 5624 5617 5611 5605 5600 5595 5590 5586 5582
5761 5740 5744 5742 5750 5754 5753 5754 5751 5737 5725 5710 5710 5705 5708 5711 5712 5712 5710 5706 5701 5696 5693 5689 5681 5676 5671 5666 5662 5657 5652 5648 5642 5634 5627 5621 5615 5607 5600 5594 5588 5584 5580 5577
5753 5742 5742 5737 5749 5750 5748 5755 5753 5747 5740 5725 5716 5711 5721 5721 5718 5714 5709 5704 5699 5695 5692 5688 5683 5676 5670 5665 5660 5655 5650 5645 5638 5631 5624 5618 5610 5603 5595 5589 5583 5578 5573 5569
5745 5737 5726 5718 5733 5737 5728 5748 5749 5745 5745 5733 5718 5718 5723 5717 5715 5711 5707 5704 5699 5695 5691 5686 5680 5673 5668 5663 5659 5653 5647 5641 5634 5627 5620 5613 5605 5597 5590 5584 5578 5572 5567 5563
5745 5733 5718 5714 5716 5710 5727 5759 5759 5746 5742 5741 5732 5727 5725 5720 5716 5712 5709 5703 5699 5695 5690 5685 5677 5672 5666 5662 5656 5651 5644 5637 5630 5623 5615 5607 5600 5592 5585 5578 5572 5567 5562 5557
5757 5738 5719 5707 5705 5712 5736 5754 5754 5738 5728 5736 5729 5725 5720 5714 5710 5707 5710 5707 5700 5696 5690 5683 5677 5671 5665 5659 5653 5647 5639 5632 5625 5617 5609 5602 5594 5587 5580 5573 5568 5563 5558 5553
5754 5743 5723 5710 5704 5699 5726 5756 5761 5740 5717 5736 5732 5726 5721 5711 5694 5697 5710 5707 5701 5696 5689 5682 5676 5669 5662 5656 5649 5641 5634 5626 5619 5612 5604 5597 5589 5582 5576 5569 5564 5559 5553 5548
5736 5729 5718 5708 5703 5713 5744 5760 5755 5717 5717 5737 5736 5731 5725 5713 5708 5712 5711 5704 5699 5694 5688 5681 5674 5665 5658 5652 5645 5636 5628 5621 5614 5607 5599 5592 5585 5578 5572 5566 5561 5555 5549 5545
5727 5718 5714 5707 5701 5711 5754 5754 5737 5734 5746 5743 5738 5734 5728 5722 5720 5714 5708 5702 5696 5690 5685 5679 5669 5661 5655 5648 5640 5631 5623 5617 5609 5601 5594 5587 5580 5574 5570 5562 5557 5551 5545 5541
5734 5731 5724 5721 5723 5747 5756 5756 5759 5755 5747 5745 5740 5738 5733 5724 5719 5714 5707 5699 5694 5688 5681 5674 5665 5657 5650 5643 5635 5626 5619 5612 5604 5596 5588 5582 5576 5570 5565 5559 5553 5548 5543 5537
5740 5750 5737 5733 5740 5752 5758 5761 5763 5758 5754 5752 5748 5743 5735 5727 5721 5714 5705 5697 5690 5684 5677 5670 5661 5653 5645 5638 5630 5622 5615 5607 5599 5590 5583 5578 5573 5568 5562 5557 5551 5545 5541 5536
5736 5741 5731 5729 5741 5751 5758 5760 5762 5761 5758 5753 5749 5744 5738 5730 5721 5713 5704 5695 5687 5680 5674 5666 5657 5649 5641 5634 5625 5618 5610 5602 5593 5585 5579 5574 5570 5565 5560 5555 5550 5545 5541 5535
5740 5735 5726 5724 5741 5739 5745 5757 5761 5757 5754 5751 5746 5740 5736 5730 5721 5712 5703 5694 5685 5677 5670 5662 5653 5645 5637 5629 5621 5613 5605 5597 5589 5581 5576 5571 5567 5563 5558 5553 5551 5548 5543 5539